Simultaneous Nadir Overpasses (SNOs) Predictions

Prediction of SNOs between METOP-B and TERRA Satellite Orbit:

Table of predicted SNOs for the next 14.0 days since TLE Epoch: 11/17/2018
Index Date (METOP-B) Time (METOP-B) Lat,Lon (METOP-B) SZA (METOP-B ) Date (TERRA) Time (TERRA) Lat,Lon (TERRA) SZA (TERRA ) Distance(km) Time Diff (sec)
1 11/17/2018 18:43:09 -81.27, 125.59 76.65 11/17/2018 18:44:21 -81.27, 125.72 76.60 2.16 72
2 11/17/2018 19:33:49 81.27, -66.64 103.42 11/17/2018 19:33:47 81.27, -66.58 103.42 1.11 2
3 11/17/2018 20:24:12 -81.31, 107.56 75.75 11/17/2018 20:22:58 -81.56, 107.22 75.68 28.63 74
4 11/20/2018 14:17:33 -81.28,-167.44 75.95 11/20/2018 14:18:33 -81.28,-167.63 75.94 3.11 60
5 11/20/2018 15:08:14 81.28, -0.08 104.07 11/20/2018 15:07:59 81.28, 0.06 104.08 2.29 15
6 11/23/2018 09:51:58 -81.27,-101.27 75.39 11/23/2018 09:52:45 -81.27,-101.34 75.38 1.27 47
7 11/23/2018 10:42:38 81.28, 66.48 104.67 11/23/2018 10:42:11 81.27, 66.33 104.64 2.69 27
8 11/26/2018 05:26:23 -81.28, -34.71 74.84 11/26/2018 05:26:57 -81.28, -34.67 74.82 1.09 34
9 11/26/2018 06:17:03 81.28, 133.02 105.22 11/26/2018 06:16:23 81.28, 132.98 105.20 0.66 40
10 11/29/2018 01:00:49 -81.27, 31.44 74.39 11/29/2018 01:01:10 -81.27, 31.64 74.36 3.26 21




NCC Satellite Simultaneous Nadir Overpasses (SNOs) Prediction Service
